Location: The Saddle
(36.8333°N, 80.3417°W)
Time: 04:05:58
(UTC-04:00)

Vanguard 3 - Pass Details

Date: 03 March 2024
Orbit: 510 x 3234 km, 33.3° (Epoch: 24 April)

Event Time Altitude Azimuth Distance (km) Brightness Sun altitude
Rises 23:38:45 0° 280° (W) 7,111 12.2 -57.3°
Reaches altitude 10° 23:43:30 10° 278° (W) 6,164 11.7 -57.7°
Enters shadow 23:53:27 37° 267° (W) 4,260 10.6 -58.5°
